Regional Weather Roundup
Issued by NWS

Home | Current Version | Previous Version | Text Only | Print | Product List | Glossary Off
Versions: 1 2 3 4 5 6 7 8 9 10 11 12 13 14 15 16 17 18 19 20 21 22 23 24 25 26 27 28 29 30 31 32 33 34 35 36 37 38 39 40 41 42 43 44 45 46 47 48 49 50

213
ASUS43 KDMX 230301
RWRIA

WEATHER ROUNDUP FOR IOWA
NATIONAL WEATHER SERVICE DES MOINES IA
1000 PM CDT WED MAR 22 2017

NOTE: "FAIR" INDICATES FEW OR NO CLOUDS BELOW 12,000 FEET WITH NO
SIGNIFICANT WEATHER AND/OR OBSTRUCTIONS TO VISIBILITY.

* - THESE STATIONS ARE NOT NWS STATIONS...THUS NOT UNDER NWS
QUALITY CONTROL.  THEY ALSO DO NOT REPORT WEATHER SUCH
AS PRECIPITATION OR FOG.

IAZ001>003-012>014-020>022-031>034-043>046-230400-
   NORTHWEST IOWA

CITY           SKY/WX    TMP DP  RH WIND       PRES   REMARKS
CARROLL *      CLOUDY    41  27  56 SE15      30.22S
DENISON *      CLOUDY    39  27  60 SE9       30.17S WCI  33
LE MARS *      CLOUDY    39  27  60 SE10      30.16F WCI  32
ORANGE CITY *  CLOUDY    37  27  65 SE10G17   30.16S WCI  30
SHELDON *      CLOUDY    36  28  75 SE18      30.15F WCI  25
SIOUX CITY     CLOUDY    42  28  57 SE16      30.15F
SPENCER        CLOUDY    38  23  55 SE15G24   30.19F WCI  29
$$

IAZ055>058-069>071-079>083-090>094-230400-
   SOUTHWEST IOWA

CITY           SKY/WX    TMP DP  RH WIND       PRES   REMARKS
ATLANTIC *     CLOUDY    43  23  45 SE13      30.21F
AUDUBON *      CLOUDY    39  27  60 SE12      30.21F WCI  32
CLARINDA *     CLOUDY    45  23  42 SE12G20   30.24S
COUNCIL BLFS * CLOUDY    45  25  45 SE20G25   30.17F
CRESTON *      CLOUDY    41  21  45 SE18      30.23F
HARLAN  *      CLOUDY    43  25  49 SE13G20   30.23S
LAMONI         CLOUDY    42  20  41 E9G22     30.25F
RED OAK *      CLOUDY    45  23  42 SE14G22   30.21S
SHENANDOAH *   CLOUDY    46  25  42 SE17      30.21S
$$

IAZ047>049-059>061-072>074-084-230400-
   CENTRAL IOWA

CITY           SKY/WX    TMP DP  RH WIND       PRES   REMARKS
AMES           CLOUDY    41  23  48 SE15G21   30.28S
ANKENY *       CLOUDY    43  21  42 SE14G21   30.29S
BOONE *        CLOUDY    41  21  45 SE17G23   30.26S
CHARITON *     CLOUDY    41  18  38 SE14G23   30.28F
DES MOINES     MOCLDY    43  20  39 SE9G18    30.28
GRINNELL*      PTCLDY    38  20  48 E14G20    30.32S WCI  30
MARSHALLTOWN   CLOUDY    40  19  43 SE18      30.29F WCI  31
NEWTON *       CLOUDY    41  19  42 SE14G22   30.30S
PELLA *        CLOUDY    40  20  44 SE8       30.32R WCI  35
$$

IAZ004>006-015-016-023>025-035-036-230400-
   NORTH CENTRAL IOWA

CITY           SKY/WX    TMP DP  RH WIND       PRES   REMARKS
ALGONA *       CLOUDY    37  23  56 SE14G21   30.25S WCI  29
CLARION *      CLOUDY    37  21  52 SE17      30.27R WCI  28
ESTHERVILLE    CLOUDY    35  25  66 SE17      30.21F WCI  25
FORT DODGE *   CLOUDY    39  19  45 SE12G20   30.27R WCI  32
MASON CITY     CLOUDY    35  20  54 SE15      30.29S WCI  25
FOREST CITY *  CLOUDY    36  23  60 SE12      30.28R WCI  27
WEBSTER CITY * CLOUDY    39  19  45 SE20      30.25R WCI  30
IOWA FALLS *   CLOUDY    38  22  50 SE14G22   30.30R WCI  30
$$

IAZ007>011-017>019-026>030-037>042-050>054-066-230400-
   NORTHEAST IOWA

CITY           SKY/WX    TMP DP  RH WIND       PRES   REMARKS
CEDAR RAPIDS   CLOUDY    37  22  54 SE14G24   30.34F WCI  28
CHARLES CITY * CLOUDY    37  18  44 SE15G21   30.31F WCI  28
CLINTON *      MOCLDY    37  22  54 SE15      30.42  WCI  28
DECORAH *      CLOUDY    36  16  44 SE9       30.32F WCI  29
DUBUQUE        CLOUDY    37  23  56 SE12      30.39S WCI  29
MONTICELLO *   CLOUDY    37  23  56 SE15G22   30.37F WCI  28
OELWEIN *      CLOUDY    37  21  52 SE15G22   30.33F WCI  28
WATERLOO       CLOUDY    37  18  46 SE15      30.31  WCI  28
$$

IAZ064-065-067-068-078-230400-
   EAST CENTRAL IOWA

CITY           SKY/WX    TMP DP  RH WIND       PRES   REMARKS
DAVENPORT      CLOUDY    38  21  50 SE14      30.42R WCI  30
IOWA CITY      CLOUDY    39  22  50 SE10      30.38F WCI  32
MUSCATINE *    MOCLDY    39  21  48 SE10G18   30.40S WCI  32
QUAD CITIES    CLOUDY    39  21  48 SE10      30.41S WCI  32
$$

IAZ062-063-075>077-085>089-095>099-230400-
   SOUTHEAST IOWA

CITY           SKY/WX    TMP DP  RH WIND       PRES   REMARKS
BURLINGTON     CLOUDY    40  18  41 SE12G21   30.38S WCI  33
FAIRFIELD *    CLOUDY    39  19  45 SE10      30.34S WCI  32
FORT MADISON * CLOUDY    41  18  38 E13       30.38S
KEOKUK *       CLOUDY    41  16  36 E12G17    30.37S
OSKALOOSA *      N/A     38  21  51 SE13      30.32F WCI  30
OTTUMWA        PTCLDY    40  16  37 SE13      30.33S WCI  32
WASHINGTON *   CLOUDY    39  21  48 SE15      30.37S WCI  31
$$

ABBREVIATIONS USED IN REMARKS
   TC - TEMPERATURES IN CELSIUS
  WCI - WIND CHILL INDEX
   HX - HEAT INDEX
  VSB - VISIBILITY
$$





USA.gov is the U.S. government's official web portal to all federal, state and local government web resources and services.